Location: Kolin
(50.0330°N, 15.2000°E)
Time: 09:06:52
(UTC+02:00)

Gurwin Techsat 1B - Pass Details

Date: 18 August 2022
Orbit: 811 x 814 km, 98.8° (Epoch: 25 September)

Event Time Altitude Azimuth Distance (km) Brightness Sun altitude
Rises 02:16:39 0° 28° (NNE) 3,350 13.2 -24.8°
Reaches altitude 10° 02:19:55 10° 49° (NE) 2,412 11.9 -24.6°
Maximum altitude 02:23:15 17° 88° (E) 1,980 10.9 -24.4°
Enters shadow 02:26:28 10° 126° (SE) 2,379 10.9 -24.2°
